Lexington Weather

Lexington, Massachusetts, USA

78°F
7/25/2024 11:53am 
  • Lexington Conditions: Mostly cloudy
  • Temperature: 77.5°F / 25.3°CWarmer 1.4°F than last hour.
  • Dew Point: 72.7°FIncreased 0.7°Fsince last hour.
  • Relative Humidity: 85%Decreased 2.0% since last hour.
  • Wind: Wind from SSW SSW 3 mph, 10-min avg: 2 mph, gust: 10 mph
  • Barometer: 29.94 inFalling 0.02  inHg/hr Falling Slowly
  • Visibility: 10 miles
  • Rain Today: 0.00 in
  •   

Regional Weather Roundup
for Boston, MA

        
000
ASUS41 KBOX 210210
RWRBOX

REGIONAL WEATHER ROUNDUP
NATIONAL WEATHER SERVICE BOSTON/NORTON MA
1000 PM EDT SAT JUL 20 2024

NOTE:  "FAIR" INDICATES FEW OR NO CLOUDS BELOW 12,000 FEET WITH NO 
SIGNIFICANT WEATHER AND/OR OBSTRUCTIONS TO VISIBILITY.

MAZALL-210300-
EASTERN MASSACHUSETTS
  
CITY           SKY/WX    TMP DP  RH WIND       PRES   REMARKS
BOSTON         CLOUDY    77  64  64 W15G23    30.00S                  
BEVERLY        CLOUDY    77  65  66 SW10      29.99R                  
LAWRENCE       MOCLDY    77  65  66 SW5       30.01R                  
BEDFORD        CLOUDY    75  65  70 SW6       29.99R                  
NORWOOD        CLOUDY    76  67  73 SW5       30.02R                  
MARSHFIELD     CLOUDY    75  64  69 SW7       30.01R                  
PLYMOUTH       MOCLDY    75  64  68 SW9       30.02S                  
TAUNTON        CLOUDY    77  64  64 SW6       30.02S                  
NEW BEDFORD    CLOUDY    74  67  78 SW8       30.03S                  
$$

MAZALL-210300-
CAPE COD AND THE ISLANDS
  
CITY           SKY/WX    TMP DP  RH WIND       PRES   REMARKS
FALMOUTH       CLEAR     72  66  83 SW15      30.05                   
HYANNIS        MOCLDY    73  64  73 SW14      30.02F                  
CHATHAM        CLOUDY    75  65  70 SW9G18    30.04S                  
PROVINCETOWN   MOCLDY    71  66  84 SW14      30.02F                  
NANTUCKET      CLOUDY    72  69  90 SW9       30.06S                  
MARTHAS VNYRD  CLOUDY    73  65  75 SW6       30.05S                  
$$
 
MAZALL-210300-
CENTRAL AND WESTERN MASSACHUSETTS
  
CITY           SKY/WX    TMP DP  RH WIND       PRES   REMARKS
WORCESTER      CLOUDY    71  63  75 SW9       30.06R                  
FITCHBURG      CLOUDY    75  65  70 W6        30.02R                  
ORANGE           N/A     73  66  78 S3        30.04R                  
SPRINGFIELD    MOCLDY    69  66  90 S6        30.00S                  
WESTFIELD      MOCLDY    69  67  93 CALM      30.03R                  
NORTH ADAMS    MOCLDY    67  67 100 CALM      30.04R                  
PITTSFIELD     MOCLDY    69  65  86 CALM      30.05R                  
$$
 
RIZALL-210300-
RHODE ISLAND
  
CITY           SKY/WX    TMP DP  RH WIND       PRES   REMARKS
PROVIDENCE     CLOUDY    74  64  71 SW9       30.04S                  
NEWPORT        CLOUDY    71  66  84 VRB6      30.05R                  
BLOCK ISLAND   CLOUDY    72  66  81 SW14        N/A                   
SMITHFIELD     CLOUDY    66  66 100 CALM      30.05S                  
WESTERLY       CLOUDY    73  63  70 SW6       30.05S                  
$$
 
CTZALL-210300-
CONNECTICUT
  
CITY           SKY/WX    TMP DP  RH WIND       PRES   REMARKS
BRADLEY INTL   CLOUDY    72  67  84 SW5       30.03R                  
HARTFORD       CLOUDY    72  68  87 CALM      30.03R                  
PLAINVILLE     CLOUDY    71  69  92 W3        30.04R                  
BRIDGEPORT     CLOUDY    76  67  73 SW9       30.04S                  
DANBURY        CLOUDY    76  65  68 W3        30.06S                  
GROTON         CLOUDY    75  64  68 SW9       30.04S                  
NEW HAVEN      CLOUDY    77  68  73 SW6       30.04S                  
CHESTER        CLOUDY    73  66  78 VRB5      30.06S                  
MERIDEN        CLOUDY    75  61  61 S3        30.04R                  
WILLIMANTIC    CLOUDY    68  66  93 CALM      30.05R                  
OXFORD         CLOUDY    72  64  76 VRB3      30.08R                  
$$

MEZ002-015-021-024-NHZ003-005-008-011-012-014-VTZ005-008-210300-
NORTHERN NEW ENGLAND
  
CITY           SKY/WX    TMP DP  RH WIND       PRES   REMARKS
PORTLAND ME    MOCLDY    69  60  73 CALM      29.97S                  
BANGOR ME      MOCLDY    72  60  66 S7        29.95R                  
CONCORD NH     MOCLDY    72  60  66 SW5       29.99S                  
MANCHESTER NH  MOCLDY    78  63  59 S5        29.98S                  
NASHUA NH      MOCLDY    75  69  81 VRB3      30.00S                  
PORTSMOUTH NH  MOCLDY    77  61  58 SW7       29.97S                  
JAFFREY NH     MOCLDY    73  65  75 SW3       30.05R                  
KEENE NH       MOCLDY    69  65  86 CALM      30.02R                  
BURLINGTON VT  MOCLDY    77  56  48 W6        29.98R                  
MT. WASHINGTON MOCLDY    48  46  93 W41         N/A                   
$$

NYZ052-076-210300-
EASTERN NEW YORK
  
CITY           SKY/WX    TMP DP  RH WIND       PRES   REMARKS
ALBANY         MOCLDY    74  65  73 CALM      30.02S                  
NEW YORK CITY  CLOUDY    80  59  48 SW12      30.05R                  
$$
 
ANZALL-210300-
MARINE OBSERVATIONS
  
STATION/POSITION TIME  TEMP    WIND        PRES    VSBY  WAVE
                       AIR SEA DIR/SP/G                  HT/PER
                 (UTC) (F)     (DEG/KT/KT) (MB)    (MI)  (FT/S)
BOSTON BUOY      0150   69 65  200/  8/ 10 1016.0S         1/ 6
BUZZARDS BAY     0100   73     240/ 16/ 16 1017.6R
NANTUCKET SOUND  0150   75 76  240/ 16/ 19 1016.8R         1/ 3
MASS BAY-STELLWA 0004   70 65  220/  8/ 10 1015.4F  1 7/8  1/ 8
ISLE OF SHOALS   0100   78     230/ 14/ 15 1014.4R
S OF BLOCK IS    0126      74                N/A           3/ 4
$$

......................KEY.........................
  SKY/WX - SKY CONDITION/PRESENT WEATHER
  TMP    - TEMPERATURE IN FAHRENHEIT
  DWPT   - DEWPOINT IN FAHRENHEIT
  RH     - RELATIVE HUMIDITY IN PERCENT
  WIND   - DIRECTION AND SPEED IN MPH
  PRES   - MEAN SEA LEVEL PRESSURE IN INCHES OF HG
  WCI    - WIND CHILL INDEX
  VSB    - VISIBILITY IN MILES
  HX     - HEAT INDEX
  TC     - TEMPERATURE IN CELSIUS
  VRB    - VARIABLE WIND DIRECTION
  N/A    - NOT AVAILABLE
  
      

Other recent Regional Weather Roundups

Thu Jul 25, 11:10am EDT

Thu Jul 25, 10:10am EDT

Thu Jul 25, 9:10am EDT

Thu Jul 25, 8:10am EDT

Thu Jul 25, 7:10am EDT

Thu Jul 25, 6:10am EDT

Thu Jul 25, 5:10am EDT

Thu Jul 25, 4:10am EDT

Thu Jul 25, 3:10am EDT

Thu Jul 25, 2:10am EDT

Thu Jul 25, 1:10am EDT

Thu Jul 25, 12:10am EDT

Wed Jul 24, 11:10pm EDT

Wed Jul 24, 10:10pm EDT

Wed Jul 24, 9:10pm EDT

Wed Jul 24, 8:10pm EDT

Wed Jul 24, 7:10pm EDT

Wed Jul 24, 6:10pm EDT

Wed Jul 24, 5:10pm EDT

Wed Jul 24, 4:10pm EDT

Wed Jul 24, 3:10pm EDT

Wed Jul 24, 2:10pm EDT

Wed Jul 24, 1:10pm EDT

Wed Jul 24, 12:10pm EDT

Wed Jul 24, 11:10am EDT

Wed Jul 24, 10:10am EDT

Wed Jul 24, 9:10am EDT

Wed Jul 24, 8:10am EDT

Wed Jul 24, 7:10am EDT

Wed Jul 24, 6:10am EDT

Wed Jul 24, 5:10am EDT

Wed Jul 24, 4:10am EDT

Wed Jul 24, 3:10am EDT

Wed Jul 24, 2:10am EDT

Wed Jul 24, 1:10am EDT

Wed Jul 24, 12:10am EDT

Tue Jul 23, 11:10pm EDT

Tue Jul 23, 10:10pm EDT

Tue Jul 23, 9:10pm EDT

Tue Jul 23, 8:10pm EDT

Tue Jul 23, 7:10pm EDT

Tue Jul 23, 6:10pm EDT

Tue Jul 23, 5:10pm EDT

Tue Jul 23, 4:10pm EDT

Tue Jul 23, 3:10pm EDT

Tue Jul 23, 2:10pm EDT

Tue Jul 23, 1:10pm EDT

Tue Jul 23, 12:10pm EDT

Tue Jul 23, 11:10am EDT

Tue Jul 23, 10:10am EDT

Tue Jul 23, 10:10am EDT

Tue Jul 23, 9:10am EDT

Tue Jul 23, 8:10am EDT

Tue Jul 23, 7:10am EDT

Tue Jul 23, 6:10am EDT

Tue Jul 23, 5:10am EDT

Tue Jul 23, 4:10am EDT

Tue Jul 23, 3:10am EDT

Tue Jul 23, 2:10am EDT

Tue Jul 23, 1:10am EDT

Tue Jul 23, 12:10am EDT

Mon Jul 22, 11:10pm EDT

Mon Jul 22, 10:10pm EDT

Mon Jul 22, 9:10pm EDT

Mon Jul 22, 8:10pm EDT

Mon Jul 22, 7:10pm EDT

Mon Jul 22, 6:10pm EDT

Mon Jul 22, 5:10pm EDT

Mon Jul 22, 4:10pm EDT

Mon Jul 22, 3:10pm EDT

Mon Jul 22, 2:10pm EDT

Mon Jul 22, 1:10pm EDT

Mon Jul 22, 12:10pm EDT

Mon Jul 22, 11:10am EDT

Mon Jul 22, 10:10am EDT

Mon Jul 22, 9:10am EDT

Mon Jul 22, 8:10am EDT

Mon Jul 22, 7:10am EDT

Mon Jul 22, 6:10am EDT

Mon Jul 22, 5:10am EDT

Mon Jul 22, 4:10am EDT

Mon Jul 22, 3:10am EDT

Mon Jul 22, 2:10am EDT

Mon Jul 22, 1:10am EDT

Mon Jul 22, 12:10am EDT

Sun Jul 21, 11:10pm EDT

Sun Jul 21, 10:10pm EDT

Sun Jul 21, 9:10pm EDT

Sun Jul 21, 8:10pm EDT

Sun Jul 21, 7:10pm EDT

Sun Jul 21, 6:10pm EDT

Sun Jul 21, 5:10pm EDT

Sun Jul 21, 4:10pm EDT

Sun Jul 21, 3:10pm EDT

Sun Jul 21, 2:10pm EDT

Sun Jul 21, 1:10pm EDT

Sun Jul 21, 12:10pm EDT

Sun Jul 21, 11:10am EDT

Sun Jul 21, 10:10am EDT

Sun Jul 21, 9:10am EDT

Sun Jul 21, 8:10am EDT

Sun Jul 21, 7:10am EDT

Sun Jul 21, 6:10am EDT

Sun Jul 21, 5:10am EDT

Sun Jul 21, 4:10am EDT

Sun Jul 21, 3:10am EDT

Sun Jul 21, 2:10am EDT

Sun Jul 21, 1:10am EDT

Sun Jul 21, 12:10am EDT

Sat Jul 20, 11:10pm EDT

Sat Jul 20, 9:10pm EDT

Sat Jul 20, 8:10pm EDT

Sat Jul 20, 7:10pm EDT

Sat Jul 20, 6:10pm EDT

Sat Jul 20, 5:10pm EDT

Sat Jul 20, 4:10pm EDT

Sat Jul 20, 3:10pm EDT

Sat Jul 20, 2:10pm EDT

Sat Jul 20, 1:10pm EDT

Sat Jul 20, 12:10pm EDT

Sat Jul 20, 11:10am EDT

Sat Jul 20, 10:10am EDT

Sat Jul 20, 9:10am EDT

Sat Jul 20, 8:10am EDT

Sat Jul 20, 7:10am EDT

Sat Jul 20, 6:10am EDT

Sat Jul 20, 5:10am EDT

Sat Jul 20, 4:10am EDT

Sat Jul 20, 3:10am EDT

Sat Jul 20, 2:10am EDT

Sat Jul 20, 1:10am EDT

Sat Jul 20, 12:10am EDT

Fri Jul 19, 11:10pm EDT

Fri Jul 19, 10:10pm EDT

Fri Jul 19, 9:10pm EDT

Fri Jul 19, 8:10pm EDT

Fri Jul 19, 7:10pm EDT

Fri Jul 19, 6:10pm EDT

Fri Jul 19, 5:10pm EDT

Fri Jul 19, 4:10pm EDT

Fri Jul 19, 3:10pm EDT

Fri Jul 19, 2:10pm EDT

Fri Jul 19, 1:10pm EDT

Fri Jul 19, 12:10pm EDT

Fri Jul 19, 11:10am EDT

Fri Jul 19, 10:10am EDT

Fri Jul 19, 9:10am EDT

Fri Jul 19, 8:10am EDT

Fri Jul 19, 7:10am EDT

Fri Jul 19, 6:10am EDT

Fri Jul 19, 5:10am EDT

Fri Jul 19, 4:10am EDT

Fri Jul 19, 3:10am EDT

Fri Jul 19, 2:10am EDT

Fri Jul 19, 1:10am EDT

Fri Jul 19, 12:10am EDT

Thu Jul 18, 11:10pm EDT

Thu Jul 18, 10:10pm EDT

Thu Jul 18, 9:10pm EDT

Thu Jul 18, 8:10pm EDT

Thu Jul 18, 7:10pm EDT

Thu Jul 18, 6:10pm EDT

Thu Jul 18, 5:10pm EDT

Thu Jul 18, 4:10pm EDT

Thu Jul 18, 3:10pm EDT

Thu Jul 18, 2:10pm EDT

Thu Jul 18, 1:10pm EDT

Thu Jul 18, 12:10pm EDT